Weather History for Ft Lauderdale, FL

Change the Weather History Date:

Thursday, May 23, 2013

  Actual Average Record
Temperature  
Mean Temperature 83 °F 81 °F  
Max Temperature 91 °F 87 °F 96 °F (1839)
Min Temperature 75 °F 75 °F 61 °F (1920)
Degree Days  
Heating Degree Days 0 0  
Month to date heating degree days 0 0  
Since 1 July heating degree days 85 112  
Cooling Degree Days 18 16  
Month to date cooling degree days 301 336  
Year to date cooling degree days 1271 1283  
Growing Degree Days 32 (Base 50)    
Moisture  
Dew Point 72 °F    
Average Humidity 68    
Maximum Humidity 91    
Minimum Humidity 44    
Precipitation  
Precipitation 0.00 in 0.19 in 3.47 in (1991)
Month to date precipitation 12.58 2.89  
Year to date precipitation 21.71 15.73  
Snow  
Snow 0.00 in - - ()
Month to date snowfall 0.0  
Since 1 July snowfall 0.0  
Snow Depth 0.00 in    
Sea Level Pressure  
Sea Level Pressure 29.97 in    
Wind  
Wind Speed 7 mph (SSW)    
Max Wind Speed 14 mph    
Max Gust Speed 18 mph    
Visibility 10 miles    
Events      
T = Trace of Precipitation, MM = Missing Value Source: NWS Daily Summary

Daily Weather History Graph

Daily Weather History Graph

Search for Another Location

Airport:

Trip Planner

Search our weather history database for the weather conditions in past years. The results will help you decide how hot, cold, wet, or windy it might be!

Date:

Astronomy

May. 23, 2013 Rise Set
Actual Time 6:30 AM EDT 8:04 PM EDT
Civil Twilight 6:05 AM EDT 8:29 PM EDT
Nautical Twilight 5:35 AM EDT 9:00 PM EDT
Astronomical Twilight 5:03 AM EDT 9:31 PM EDT
Moon 6:41 PM EDT (5/23) 5:04 AM EDT (5/23)
Length of Visible Light 14h 24m
Length of Day
13h 33m
Waxing Gibbous, 97% of the Moon is Illuminated
May 23
Waxing Gibbous
May 25
Full
May 31
Last Quarter
Jun 8
New
Jun 16
First Quarter

Hourly Weather History & Observations

Time (EDT) Temp. Heat Index Dew Point Humidity Pressure Visibility Wind Dir Wind Speed Gust Speed Precip Events Conditions
12:53 AM 78.1 °F - 73.0 °F 84% 29.94 in 10.0 mi SSW 4.6 mph - N/A   Clear
1:53 AM 77.0 °F - 73.0 °F 88% 29.93 in 10.0 mi South 5.8 mph - N/A   Clear
2:53 AM 77.0 °F - 72.0 °F 84% 29.92 in 10.0 mi South 5.8 mph - N/A   Partly Cloudy
3:53 AM 77.0 °F - 71.1 °F 82% 29.92 in 10.0 mi SSW 4.6 mph - N/A   Partly Cloudy
4:53 AM 75.9 °F - 72.0 °F 87% 29.94 in 10.0 mi Calm Calm - N/A   Partly Cloudy
5:53 AM 75.0 °F - 72.0 °F 90% 29.94 in 10.0 mi South 3.5 mph - N/A   Partly Cloudy
6:53 AM 75.0 °F - 72.0 °F 90% 29.97 in 10.0 mi Calm Calm - N/A   Partly Cloudy
7:53 AM 77.0 °F - 73.0 °F 88% 29.99 in 10.0 mi West 3.5 mph - N/A   Partly Cloudy
8:53 AM 80.1 °F 84.5 °F 73.9 °F 81% 30.00 in 10.0 mi WNW 8.1 mph - N/A   Mostly Cloudy
9:53 AM 82.0 °F 87.9 °F 73.9 °F 76% 30.00 in 10.0 mi WNW 9.2 mph - N/A   Mostly Cloudy
10:23 AM 82.4 °F 88.2 °F 73.4 °F 74% 30.00 in 10.0 mi West 10.4 mph - N/A   Mostly Cloudy
10:53 AM 84.0 °F 90.2 °F 73.0 °F 69% 30.01 in 10.0 mi WSW 11.5 mph - N/A   Mostly Cloudy
11:53 AM 86.0 °F 91.5 °F 71.1 °F 61% 30.01 in 10.0 mi WNW 8.1 mph - N/A   Mostly Cloudy
12:53 PM 89.1 °F 92.9 °F 68.0 °F 50% 30.00 in 10.0 mi WNW 11.5 mph - N/A   Scattered Clouds
1:53 PM 90.0 °F 92.8 °F 66.9 °F 46% 29.99 in 10.0 mi WNW 9.2 mph - N/A   Scattered Clouds
2:53 PM 90.0 °F 91.7 °F 64.9 °F 43% 29.97 in 10.0 mi West 6.9 mph - N/A   Scattered Clouds
3:53 PM 90.0 °F 92.4 °F 66.0 °F 45% 29.94 in 10.0 mi SSE 8.1 mph - N/A   Scattered Clouds
4:53 PM 86.0 °F 93.8 °F 73.9 °F 67% 29.95 in 10.0 mi SE 10.4 mph - N/A   Partly Cloudy
5:53 PM 84.9 °F 93.3 °F 75.0 °F 72% 29.95 in 10.0 mi ESE 11.5 mph - N/A   Partly Cloudy
6:53 PM 82.9 °F 89.4 °F 73.9 °F 74% 29.95 in 10.0 mi SE 11.5 mph - N/A   Partly Cloudy
7:53 PM 82.0 °F 88.6 °F 75.0 °F 79% 29.96 in 10.0 mi SSE 9.2 mph - N/A   Partly Cloudy
8:53 PM 82.0 °F 87.9 °F 73.9 °F 76% 29.98 in 10.0 mi SSE 5.8 mph - N/A   Partly Cloudy
9:53 PM 81.0 °F 87.9 °F 77.0 °F 88% 29.99 in 10.0 mi SSE 4.6 mph - N/A   Clear
10:53 PM 80.1 °F 85.8 °F 77.0 °F 90% 29.99 in 10.0 mi SE 4.6 mph - N/A   Clear
11:53 PM 80.1 °F 85.4 °F 75.9 °F 87% 30.00 in 10.0 mi SSE 4.6 mph - N/A   Clear